NA4DL Weather Reports


time (UTC)temp
F
wind
direction
speed
knots
gust
knots
rain 1hr
in
rain 24hr
in
rain mn
in
humidity
%
barometer
mb
20260510234018 79 347 0.9 1.7 0.00 0.00 0.00 55 1015.0
20260510233019 81 333 0.9 2.6 0.00 0.00 0.00 52 1014.9
20260510232019 82 334 0.9 1.7 0.00 0.00 0.00 49 1014.8
20260510231039 85 335 0.9 2.6 0.00 0.00 0.00 47 1014.6
20260510230016 85 28 0.9 2.6 0.00 0.00 0.00 46 1014.7
20260510225019 84 341 1.7 4.3 0.00 0.00 0.00 47 1014.7
20260510224020 85 271 1.7 3.5 0.00 0.00 0.00 44 1014.7
20260510223019 85 22 1.7 4.3 0.00 0.00 0.00 46 1014.7
20260510222019 84 280 1.7 3.5 0.00 0.00 0.00 46 1014.7
20260510221017 86 286 1.7 4.3 0.00 0.00 0.00 45 1014.6
20260510220017 85 53 1.7 6.1 0.00 0.00 0.00 46 1014.6
20260510215017 83 256 1.7 4.3 0.00 0.00 0.00 46 1014.6
20260510214017 84 285 1.7 3.5 0.00 0.00 0.00 47 1014.6
20260510213020 84 288 1.7 3.5 0.00 0.00 0.00 47 1014.7
20260510212018 83 264 1.7 3.5 0.00 0.00 0.00 48 1014.8
20260510211018 85 283 1.7 3.5 0.00 0.00 0.00 47 1014.9
20260510210018 84 256 1.7 4.3 0.00 0.00 0.00 46 1015.0
20260510205018 84 284 1.7 5.2 0.00 0.00 0.00 46 1015.1
20260510204018 84 289 1.7 4.3 0.00 0.00 0.00 48 1015.1
20260510203019 83 295 0.9 3.5 0.00 0.00 0.00 48 1015.1
20260510202059 83 8 1.7 2.6 0.00 0.00 0.00 49 1015.1
20260510201019 83 302 0.9 3.5 0.00 0.00 0.00 49 1015.3
20260510200039 83 279 1.7 4.3 0.00 0.00 0.00 47 1015.3
20260510195016 84 273 1.7 4.3 0.00 0.00 0.00 46 1015.3
20260510194039 84 285 1.7 5.2 0.00 0.00 0.00 47 1015.4
20260510193019 83 278 1.7 4.3 0.00 0.00 0.00 49 1015.4
20260510192019 83 301 1.7 5.2 0.00 0.00 0.00 50 1015.3
20260510191020 83 302 1.7 3.5 0.00 0.00 0.00 48 1015.3
20260510190017 82 352 1.7 3.5 0.00 0.00 0.00 47 1015.4
20260510185117 81 293 1.7 3.5 0.00 0.00 0.00 44 1015.4
20260510184020 81 289 1.7 4.3 0.00 0.00 0.00 47 1015.5
20260510183020 81 311 1.7 3.5 0.00 0.00 0.00 47 1015.5
20260510182017 81 274 1.7 3.5 0.00 0.00 0.00 49 1015.6
20260510181017 81 265 1.7 3.5 0.00 0.00 0.00 49 1015.7
20260510180018 81 296 1.7 3.5 0.00 0.00 0.00 48 1015.8
20260510175018 80 284 1.7 4.3 0.00 0.00 0.00 49 1015.9
20260510174038 80 332 0.9 3.5 0.00 0.00 0.00 52 1016.1
20260510173018 80 265 2.6 3.5 0.00 0.00 0.00 52 1016.1
20260510172018 79 282 1.7 3.5 0.00 0.00 0.00 53 1016.1
20260510171018 79 309 1.7 4.3 0.00 0.00 0.00 54 1016.2
20260510170018 79 249 1.7 3.5 0.00 0.00 0.00 53 1016.2
20260510165039 78 282 1.7 4.3 0.00 0.00 0.00 54 1016.2
20260510164019 78 354 0.9 2.6 0.00 0.00 0.00 55 1016.1
20260510163019 78 269 1.7 4.3 0.00 0.00 0.00 55 1016.2
20260510162019 77 282 1.7 4.3 0.00 0.00 0.00 52 1016.2
20260510161032 77 300 1.7 2.6 0.00 0.00 0.00 53 1016.0
20260510160019 77 288 2.6 4.3 0.00 0.00 0.00 54 1016.0
20260510155017 76 289 1.7 3.5 0.00 0.00 0.00 56 1016.0
20260510154040 76 285 2.6 4.3 0.00 0.00 0.00 60 1016.0
20260510153017 75 297 0.9 3.5 0.00 0.00 0.00 64 1015.9
20260510152017 74 293 1.7 3.5 0.00 0.00 0.00 66 1015.9
20260510151017 74 285 0.9 2.6 0.00 0.00 0.00 67 1015.9
20260510150020 73 284 1.7 4.3 0.00 0.00 0.00 70 1016.0
20260510145032 72 335 0.9 1.7 0.00 0.00 0.00 73 1015.9
20260510144017 72 302 1.7 3.5 0.00 0.00 0.00 75 1015.9
20260510143018 71 289 1.7 2.6 0.00 0.00 0.00 78 1015.9
20260510142018 70 306 1.7 3.5 0.00 0.00 0.00 80 1016.0
20260510141018 69 308 1.7 3.5 0.00 0.00 0.00 83 1015.9
20260510140022 69 306 2.6 5.2 0.00 0.00 0.00 86 1015.9
20260510135039 68 295 1.7 2.6 0.00 0.00 0.00 88 1016.0
20260510134018 67 280 0.9 2.6 0.00 0.00 0.00 90 1015.9
20260510133019 66 307 1.7 3.5 0.00 0.00 0.00 91 1015.9
20260510132019 66 294 1.7 4.3 0.00 0.00 0.00 93 1016.0
20260510131039 64 263 0.9 1.7 0.00 0.00 0.00 95 1015.9
20260510130039 64 298 0.9 1.7 0.00 0.00 0.00 96 1015.8
20260510125040 63 307 0.9 1.7 0.00 0.00 0.00 97 1015.8
20260510124019 62 309 0.9 2.6 0.00 0.00 0.00 99 1015.6
20260510123019 62 295 0.9 3.5 0.00 0.00 0.00 100 1015.5
20260510122020 61 303 1.7 2.6 0.00 0.00 0.00 99 1015.4
20260510121020 61 306 0.9 3.5 0.00 0.00 0.00 99 1015.2
20260510120020 60 314 0.9 1.7 0.00 0.00 0.00 99 1015.1
20260510115040 59 84 0.9 1.7 0.00 0.00 0.00 99 1014.9
20260510114020 59 286 0.0 0.9 0.00 0.00 0.00 99 1014.8
20260510113020 59 327 0.0 0.0 0.00 0.00 0.00 99 1014.5
20260510112021 59 316 0.0 1.7 0.00 0.00 0.00 99 1014.4
20260510111021 59 300 0.9 1.7 0.00 0.00 0.00 99 1014.2
20260510110021 58 307 0.9 1.7 0.00 0.00 0.00 99 1014.2
20260510105041 57 290 0.9 1.7 0.00 0.00 0.00 99 1014.0
20260510104021 57 23 0.9 0.9 0.00 0.00 0.00 100 1013.8
20260510103041 57 281 0.0 0.9 0.00 0.00 0.00 99 1013.8
20260510102042 57 298 0.9 1.7 0.00 0.00 0.00 98 1013.8
20260510101022 57 264 0.9 0.9 0.00 0.00 0.00 98 1013.7
20260510100022 57 41 0.0 0.9 0.00 0.00 0.00 98 1013.7
20260510095022 57 223 0.9 1.7 0.00 0.00 0.00 96 1013.5
20260510094022 58 38 0.9 0.9 0.00 0.00 0.00 96 1013.4
20260510093042 58 82 0.9 1.7 0.00 0.00 0.00 96 1013.4
20260510092043 58 347 0.9 1.7 0.00 0.00 0.00 96 1013.4
20260510091043 58 262 0.9 1.7 0.00 0.00 0.00 95 1013.4
20260510090128 58 334 0.9 2.6 0.00 0.00 0.00 93 1013.3
20260510085023 58 254 0.9 1.7 0.00 0.00 0.00 92 1013.3
20260510084023 58 275 0.9 1.7 0.00 0.00 0.00 91 1013.3
20260510083044 59 282 1.7 2.6 0.00 0.00 0.00 90 1013.3
20260510082024 59 283 0.9 2.6 0.00 0.00 0.00 89 1013.2
20260510081044 59 272 0.9 2.6 0.00 0.00 0.00 88 1013.2
20260510080024 59 270 0.9 1.7 0.00 0.00 0.00 87 1013.1
20260510075024 59 271 0.9 2.6 0.00 0.00 0.00 87 1013.0
20260510074024 58 279 0.9 2.6 0.00 0.00 0.00 86 1012.7
20260510073045 58 281 0.9 1.7 0.00 0.00 0.00 85 1012.6
20260510072024 56 277 1.7 2.6 0.00 0.00 0.00 86 1012.6
20260510071025 55 300 0.0 1.7 0.00 0.00 0.00 88 1012.5
20260510070045 55 239 0.9 2.6 0.00 0.00 0.00 90 1012.5
20260510065025 54 186 0.9 1.7 0.00 0.00 0.00 93 1012.5
20260510064045 54 78 0.9 0.9 0.00 0.00 0.00 94 1012.5
20260510063025 54 141 0.9 1.7 0.00 0.00 0.00 94 1012.4
20260510062046 54 130 0.9 0.9 0.00 0.00 0.00 93 1012.4
20260510061026 54 109 0.9 0.9 0.00 0.00 0.00 93 1012.4
20260510060046 54 127 0.9 0.9 0.00 0.00 0.00 93 1012.5
20260510055026 54 93 0.9 1.7 0.00 0.00 0.00 93 1012.5
20260510054026 54 144 0.0 0.9 0.00 0.00 0.00 93 1012.5
20260510053046 54 107 0.9 1.7 0.00 0.00 0.00 92 1012.5
20260510052027 54 92 0.9 0.9 0.00 0.00 0.00 92 1012.5
20260510051027 54 126 0.9 0.9 0.00 0.00 0.00 93 1012.5
20260510050047 55 84 0.9 1.7 0.00 0.00 0.00 93 1012.5
20260510045027 55 109 0.9 1.7 0.00 0.00 0.00 92 1012.5
20260510044027 55 87 0.9 1.7 0.00 0.00 0.00 92 1012.5
20260510043027 56 44 0.0 0.9 0.00 0.00 0.00 92 1012.5
20260510042027 56 18 0.0 0.9 0.00 0.00 0.00 92 1012.5
20260510041027 56 118 0.0 0.9 0.00 0.00 0.00 92 1012.4
20260510040047 57 70 0.0 0.9 0.00 0.00 0.00 91 1012.4
20260510035019 57 69 0.0 0.9 0.00 0.00 0.00 90 1012.4
20260510034017 57 95 0.0 0.9 0.00 0.00 0.00 90 1012.5
20260510033017 57 77 0.9 1.7 0.00 0.00 0.00 90 1012.5
20260510032016 58 93 0.9 1.7 0.00 0.00 0.00 90 1012.5
20260510031020 58 58 0.0 0.9 0.00 0.00 0.00 90 1012.4
20260510030017 59 86 0.9 1.7 0.00 0.00 0.00 89 1012.3
20260510025018 59 84 0.9 0.9 0.00 0.00 0.00 88 1012.1
20260510024037 60 103 0.9 1.7 0.00 0.00 0.00 86 1012.0
20260510023017 60 64 0.9 0.9 0.00 0.00 0.00 85 1011.9
20260510022017 60 76 0.0 0.9 0.00 0.00 0.00 85 1011.8
20260510021018 61 76 0.9 0.9 0.00 0.00 0.00 84 1011.7
20260510020038 62 64 0.0 0.9 0.00 0.00 0.00 83 1011.6
20260510015018 62 72 0.0 0.9 0.00 0.00 0.00 82 1011.5
20260510014018 63 70 0.0 0.9 0.00 0.00 0.00 80 1011.4
20260510013018 64 65 0.0 1.7 0.00 0.00 0.00 79 1011.3
20260510012036 65 65 0.0 0.9 0.00 0.00 0.00 76 1011.2
20260510011018 67 66 0.0 0.9 0.00 0.00 0.00 76 1011.0
20260510010019 68 79 0.0 0.9 0.00 0.00 0.00 74 1010.8
20260510005019 69 81 0.0 0.9 0.00 0.00 0.00 72 1010.7
20260510004039 71 60 0.0 1.7 0.00 0.00 0.00 70 1010.6
20260510003037 73 80 0.0 0.9 0.00 0.00 0.00 68 1010.7
20260510002017 76 73 0.0 1.7 0.00 0.00 0.00 64 1010.6
20260510001020 79 99 0.9 1.7 0.00 0.00 0.00 58 1010.7
20260510000017 82 35 0.9 1.7 0.00 0.00 0.00 52 1010.5
20260509235017 84 295 0.9 1.7 0.00 0.00 0.00 46 1010.5